Theta_e
336 341 347 349 346 344 341 341 342 344 344 346 344 343 342 341 340 340 341 342 341 339 339 339 338 337 337 337 336 336 337 336 336 335 335 337 337 338 338 336 336 331 335
338 342 346 347 346 343 342 342 343 344 344 343 345 342 341 340 339 338 340 337 337 337 338 338 338 338 338 337 335 335 334 333 334 335 334 335 335 334 335 335 336 332 336
340 343 344 345 345 344 343 343 341 343 343 343 345 343 340 340 339 337 337 339 337 337 337 337 336 338 337 337 336 335 333 333 334 334 333 326 327 333 335 335 334 333 332
342 342 341 342 344 344 342 342 342 341 342 342 346 343 341 340 338 337 337 338 338 337 336 337 338 337 337 337 336 334 333 332 332 331 326 329 330 336 336 335 334 334 332
340 340 340 342 344 344 343 342 341 338 341 341 344 344 341 339 338 337 337 338 337 336 336 337 336 337 336 335 335 333 332 332 331 328 328 328 328 331 335 335 333 333 335
338 339 339 342 344 343 342 342 340 339 340 338 342 344 342 340 340 339 338 337 337 336 336 336 336 336 335 335 334 334 333 332 329 324 324 328 327 334 335 335 333 332 333
337 337 338 342 343 343 342 341 340 340 340 340 338 339 342 342 341 339 339 338 336 335 335 335 335 334 334 333 333 334 333 330 323 323 324 325 328 334 336 333 332 331 330
337 337 338 336 338 341 341 341 340 340 340 340 339 336 336 340 340 340 338 337 335 335 335 334 333 333 332 332 332 335 331 328 324 322 323 324 334 334 335 333 331 330 330
336 336 336 336 336 334 337 338 339 340 339 339 338 336 334 337 338 339 337 336 336 334 334 334 332 332 331 330 330 330 328 326 320 322 325 323 333 332 334 333 331 330 329
334 336 335 334 334 334 334 332 334 336 337 337 335 332 330 331 333 334 332 335 336 336 334 334 333 332 330 329 328 326 326 324 319 320 321 323 332 326 332 331 331 330 329
333 335 335 334 333 333 332 331 329 331 332 331 330 327 325 324 326 327 328 333 336 335 335 334 332 332 331 328 325 324 322 318 318 319 320 328 329 328 328 330 331 329 328
329 331 335 333 333 331 333 332 330 331 330 328 326 325 323 322 322 324 321 326 332 332 333 334 333 331 326 317 316 320 315 317 317 317 318 328 329 330 330 330 330 330 328
327 330 333 334 333 331 330 329 329 330 328 326 324 323 322 322 320 320 319 320 321 322 326 329 327 323 319 315 314 312 313 314 315 315 318 327 330 330 330 329 328 331 329
322 327 330 332 332 331 331 328 328 328 326 324 324 323 320 319 318 318 318 318 318 319 320 321 321 320 317 316 315 313 312 313 313 313 314 322 329 330 330 330 329 330 331
319 325 328 331 332 332 330 329 328 328 327 326 323 323 322 320 319 318 318 318 318 318 319 318 318 319 318 316 316 316 315 313 312 313 313 315 324 328 329 330 330 330 330
321 320 325 329 332 332 331 329 328 328 327 326 324 324 322 322 320 320 319 319 318 318 320 318 317 316 315 316 315 315 314 314 313 313 313 313 319 325 328 329 330 330 330
322 323 321 324 331 331 331 330 329 328 327 325 325 324 323 322 320 321 321 320 320 320 319 318 316 315 314 314 313 314 314 314 313 313 313 313 313 319 323 327 328 330 330
323 321 321 323 324 330 330 331 330 328 327 326 326 325 324 323 322 321 320 320 321 319 320 317 317 316 314 314 314 315 314 314 314 313 313 314 313 313 317 323 327 329 330
322 323 321 321 322 323 329 330 329 328 327 327 326 325 324 324 323 322 321 321 318 318 318 317 315 316 316 314 313 314 314 313 314 314 312 313 313 314 313 317 320 322 328
314 321 322 320 321 321 324 327 327 326 325 327 326 326 325 324 323 322 322 321 319 318 317 315 315 313 314 314 314 314 313 313 313 312 313 314 314 313 313 313 314 315 319
308 312 318 317 319 320 319 322 324 323 324 325 325 325 324 324 324 323 323 321 319 319 318 316 315 313 312 309 309 310 311 313 313 313 313 313 312 314 313 314 314 314 315
307 308 313 318 319 320 320 320 323 324 324 325 325 324 324 324 324 323 323 322 320 320 319 317 315 310 312 310 307 306 306 308 311 314 313 313 314 314 313 314 314 313 314
304 306 308 317 319 319 321 319 318 318 317 319 322 322 323 324 323 323 323 323 321 320 319 319 316 315 313 308 312 308 302 303 305 309 311 313 313 312 313 313 313 314 314
303 304 307 311 318 318 319 319 319 319 317 320 321 323 323 323 323 323 323 322 322 320 319 319 318 317 315 313 307 313 313 306 304 303 307 309 310 311 312 312 313 313 314
300 300 305 306 311 319 318 320 319 318 320 321 318 318 320 321 322 322 322 323 321 321 319 319 317 316 317 315 313 307 310 312 310 305 305 306 305 309 313 312 313 313 313
297 298 299 301 304 311 317 317 317 318 319 318 316 317 319 320 321 321 322 322 322 321 320 319 318 317 315 315 315 313 311 307 308 309 307 308 308 309 309 312 312 313 314
Wind_Speed
5 6 12 15 14 13 14 15 14 12 13 14 17 16 16 15 15 14 14 14 15 16 17 16 17 18 18 18 17 17 17 17 16 15 14 14 15 16 17 15 12 7 16
8 6 13 15 14 14 13 12 11 11 11 13 17 16 15 14 15 14 13 14 15 15 16 16 17 16 15 17 17 17 16 15 14 13 13 12 12 14 15 15 14 12 15
10 8 10 13 15 14 14 13 12 11 9 9 15 17 15 15 15 15 13 11 14 15 15 15 16 13 12 12 15 14 13 14 10 9 9 4 7 12 13 13 13 13 13
8 7 9 13 14 15 13 12 12 13 9 9 17 17 16 15 14 14 14 12 13 15 14 14 14 13 13 13 13 12 12 12 9 8 4 5 5 12 12 11 12 12 11
8 6 6 11 14 14 14 14 12 14 9 9 12 17 15 15 14 14 12 12 12 14 13 13 13 12 12 12 13 12 11 9 9 7 5 3 2 8 10 12 11 12 12
7 7 10 12 14 14 12 13 13 13 12 13 10 13 15 14 12 16 10 12 12 12 12 11 12 10 9 10 10 10 11 10 7 5 5 5 3 9 10 12 11 11 11
8 6 8 12 13 15 15 13 11 11 10 9 12 12 12 13 12 11 12 10 10 12 11 10 10 8 7 8 7 11 9 7 5 4 4 4 3 9 10 11 10 10 9
10 7 7 8 10 12 14 14 15 14 12 12 10 12 11 10 12 13 11 8 11 11 10 9 7 7 6 6 6 11 8 6 4 4 3 3 2 7 9 9 9 9 8
6 6 5 5 7 8 9 9 10 12 13 11 9 12 12 10 9 14 12 12 9 10 10 9 7 5 5 6 8 6 8 6 4 2 2 1 2 6 7 8 8 7 7
6 7 6 5 5 5 6 8 7 8 10 11 10 9 8 8 8 11 11 11 12 9 10 9 9 7 6 5 6 5 7 6 3 2 1 2 4 3 4 3 6 7 6
7 10 7 6 5 5 5 6 7 7 9 10 9 10 6 3 4 7 6 10 10 10 10 10 9 8 7 5 5 4 5 2 3 2 2 3 3 1 3 3 4 5 5
12 12 11 8 8 6 5 5 4 4 3 3 4 5 4 4 3 3 5 10 12 11 11 11 10 7 5 2 2 2 2 4 3 3 3 6 4 5 3 4 4 5 5
10 8 12 9 8 8 6 4 3 3 3 3 5 5 4 3 3 2 1 2 3 5 3 5 4 3 4 3 3 3 4 4 3 3 4 9 8 7 6 6 5 7 7
9 11 10 11 10 9 5 5 5 4 4 4 4 5 3 2 4 3 2 4 3 3 4 3 2 3 5 5 5 4 4 4 3 3 5 9 9 10 9 9 8 8 10
12 11 11 11 11 10 9 6 6 7 6 6 5 5 4 4 4 3 4 3 3 3 4 4 4 3 4 5 5 5 6 6 6 3 3 9 10 11 11 11 11 10 10
13 14 12 13 12 11 11 10 8 7 8 7 7 8 9 6 5 5 4 4 3 3 3 4 4 4 4 4 6 6 6 5 6 6 4 5 11 12 13 13 13 13 13
14 14 13 16 13 13 14 12 10 9 9 8 8 10 12 10 8 7 6 5 5 4 5 3 3 3 4 4 6 5 5 6 5 6 5 4 5 11 12 15 15 15 15
13 12 13 12 14 14 13 11 9 8 8 9 9 8 12 11 10 8 7 7 6 4 5 4 5 5 5 5 6 7 5 5 6 7 5 5 5 5 8 14 15 16 16
14 14 13 13 15 16 15 11 11 10 9 9 8 8 11 12 12 11 9 8 7 6 6 6 5 6 6 6 6 6 6 6 7 5 7 7 7 6 5 10 14 13 14
9 11 12 11 14 13 11 8 5 7 7 8 8 9 10 9 11 11 9 9 9 8 7 6 8 5 6 6 6 7 7 6 6 6 9 8 8 9 8 8 6 7 14
7 8 10 10 14 9 7 8 8 10 9 8 9 12 10 11 12 12 10 8 9 10 11 10 8 9 7 4 1 5 7 8 10 9 8 8 8 9 8 8 7 5 6
8 8 7 11 10 11 9 9 8 7 8 8 7 9 12 13 13 13 13 11 11 10 10 10 10 5 7 7 4 1 6 5 8 12 10 11 13 8 9 10 9 9 8
8 9 8 10 10 11 13 3 2 2 0 3 7 9 13 13 13 14 15 13 11 11 11 12 12 14 10 5 10 5 2 7 2 2 10 10 11 8 9 10 10 11 11
9 6 7 8 9 9 10 7 10 10 10 10 10 8 8 11 13 13 15 14 13 10 12 11 10 12 11 11 3 11 12 3 4 5 3 4 6 8 10 8 10 11 11
5 5 5 3 4 4 5 11 9 11 9 9 4 6 9 9 13 13 13 15 13 10 12 13 11 12 11 11 11 4 10 11 9 6 15 6 2 6 9 9 10 9 11
5 6 7 7 6 4 3 6 8 10 11 6 5 6 7 6 7 12 13 13 14 12 13 12 13 14 14 13 12 11 11 6 11 11 13 15 14 8 7 9 10 11 10
Wind_Direction
195 163 136 126 126 124 118 119 119 115 116 121 118 108 107 105 103 101 98 92 92 97 98 98 94 91 87 84 83 80 76 72 68 68 70 74 74 75 72 66 58 70 78
142 155 142 136 134 131 128 123 125 121 124 120 123 115 113 114 110 107 103 108 107 108 106 105 100 93 93 96 91 90 89 83 70 63 47 51 66 75 72 64 61 62 62
144 147 136 135 138 137 138 132 133 133 130 130 133 121 119 121 117 115 109 103 114 112 113 113 107 97 94 124 102 98 97 92 85 72 87 70 72 72 67 66 67 65 63
143 140 142 143 143 142 142 139 145 144 143 143 135 131 129 127 130 120 124 121 118 117 121 119 110 97 91 109 113 108 104 92 72 60 41 41 50 62 67 67 62 56 55
140 135 145 146 148 149 149 148 150 152 156 142 130 136 134 133 137 129 129 129 127 124 126 125 118 104 95 105 119 117 107 94 74 44 28 51 33 83 79 70 61 48 37
146 144 158 159 157 154 157 160 156 159 163 162 144 142 139 139 147 135 143 133 131 130 129 132 125 115 104 104 121 118 115 106 77 45 36 30 44 102 96 87 71 52 41
154 154 166 165 165 163 164 170 160 160 162 157 164 158 143 147 146 140 143 148 145 137 136 139 135 124 106 97 124 138 124 108 102 73 29 23 75 93 100 88 76 64 56
158 159 166 173 171 173 174 168 169 171 169 172 180 171 170 158 160 152 147 143 153 149 148 149 146 134 119 94 111 142 135 130 102 87 50 14 97 97 103 96 81 68 62
152 154 171 177 181 179 181 182 182 175 176 170 172 182 179 174 183 162 161 162 162 168 162 163 163 159 145 117 105 121 152 137 118 106 83 4 282 88 106 106 98 84 76
160 171 172 183 187 187 186 191 192 187 178 171 172 186 201 186 194 164 165 170 171 175 176 179 181 183 175 149 121 107 151 142 135 134 51 328 356 100 101 107 117 110 95
176 180 177 183 188 189 195 200 198 189 186 182 181 185 203 219 208 183 170 176 177 177 180 193 199 198 190 187 158 137 143 174 172 199 205 249 268 167 146 142 157 133 122
197 198 194 189 188 181 195 198 199 194 198 197 189 192 194 214 231 217 201 186 188 182 188 197 208 213 211 219 214 169 181 189 194 211 223 223 218 202 186 168 190 177 159
200 199 201 195 192 189 194 177 182 175 177 191 200 200 208 202 230 254 279 246 219 182 183 205 209 205 218 232 250 220 198 200 207 218 238 228 218 211 215 212 205 208 192
203 206 198 196 195 196 190 185 183 188 184 185 195 194 182 216 217 226 224 229 228 196 204 225 225 223 234 237 239 253 243 227 210 219 237 244 233 226 221 219 222 219 212
213 214 205 196 200 195 197 189 191 194 197 191 178 189 185 199 216 204 221 222 228 205 203 212 226 239 242 244 242 241 257 246 236 230 225 244 242 239 236 232 230 229 222
219 216 201 209 202 195 202 200 200 199 195 189 190 199 198 200 205 205 217 221 226 216 217 216 216 228 243 242 257 251 244 248 234 235 230 236 239 242 244 242 238 235 237
225 224 205 207 201 201 205 205 203 203 197 201 202 198 201 197 192 204 207 215 217 206 209 209 240 246 256 256 253 252 250 238 240 233 225 228 239 242 244 245 246 242 242
230 219 213 211 204 207 209 209 210 206 204 207 205 201 204 204 197 194 200 209 205 201 222 211 212 234 232 238 248 250 243 247 243 241 229 224 224 226 239 241 246 246 243
215 218 215 205 208 207 213 210 209 207 208 211 208 207 206 204 198 202 208 207 183 199 200 212 224 213 234 237 237 252 255 248 245 239 238 232 223 222 223 233 236 243 246
223 220 216 204 214 211 214 212 207 217 209 215 215 215 206 205 203 206 214 207 189 201 203 196 215 210 224 226 241 246 238 241 247 241 241 241 232 220 215 217 223 236 241
235 216 211 193 209 191 193 199 207 214 216 219 217 215 201 204 206 206 213 206 199 208 210 205 205 208 228 183 249 259 257 242 243 240 235 238 237 236 223 219 217 214 231
236 219 217 216 209 205 201 208 208 209 221 223 217 220 215 211 207 207 211 210 205 214 214 205 203 207 232 173 195 152 284 287 241 233 226 228 228 219 224 219 212 213 213
238 230 215 213 208 206 212 164 139 63 222 200 215 215 218 214 213 210 211 213 210 210 221 216 206 210 223 190 205 193 240 238 312 219 236 231 231 219 225 226 216 216 214
255 246 230 219 199 200 190 190 205 215 220 227 222 221 218 210 217 216 219 216 217 211 221 222 215 216 216 224 190 223 235 174 239 307 254 247 231 229 223 220 226 220 215
43 27 5 299 268 258 208 205 204 217 224 237 202 209 214 209 211 214 216 222 221 220 223 225 220 212 217 226 222 182 223 235 233 243 276 262 251 233 231 227 222 226 213
47 45 38 48 39 17 230 216 221 227 234 238 228 221 230 224 215 218 219 219 224 223 224 225 226 218 215 220 227 223 220 201 217 224 242 260 261 253 224 229 221 220 218